Content
SEND FEEDBACK

Daily
Averages
Monthly
Summary
Turkmenistan

ASHGABAT, TURKMENISTAN


Home > Asia > Turkmenistan
Elevation: 775 feet     Latitude: 37 58N     Longitude: 058 20E

WEATHER
 
SELECT A DAY
Number of Records: 177,024;   Date Range: 3/15/97 - 7/7/14
 
SHARE

PRINT THIS DATA

[ ← Previous Day ]
WEATHER ALMANAC - APRIL 9, 2013
[ Next Day → ]
[ °C ]   °F
We're sorry. There is no daily almanac available for Ashgabat, Turkmenistan on April 9, 2013.
WEATHER BY HOUR - APRIL 9, 2013
[ °C ]   °F
Local TimeTemperatureDewpointHumidityBarometerVisibilityWind DirectionWind SpeedGust SpeedPrecipitationEventsConditions
1:00 AM62.6 °F37.4 °F39 %29.83 in6.2 miWest (280°)4.5 mphMostly Cloudy
2:00 AM57.0 °F42.0 °F46 %29.85 in6.0 miCalmClear
2:00 AM59.0 °F39.2 °F48 %29.83 in6.2 miNE (40°)4.5 mphMostly Cloudy
3:00 AM57.2 °F39.2 °F51 %29.83 in6.2 miSSE (160°)4.5 mphMostly Cloudy
4:00 AM55.4 °F39.2 °F54 %29.80 in6.2 miSSE (160°)4.5 mphMostly Cloudy
5:00 AM54.0 °F42.0 °F55 %29.83 in6.0 miENE (70°)2.2 mphClear
5:00 AM57.2 °F41.0 °F55 %29.80 in6.2 miSE (130°)4.5 mphPartly Cloudy
6:00 AM55.4 °F41.0 °F58 %29.80 in6.2 miSE (130°)8.9 mphPartly Cloudy
7:00 AM55.4 °F37.4 °F51 %29.80 in6.2 miESE (110°)8.9 mphMostly Cloudy
8:00 AM57.0 °F40.0 °F42 %29.82 in6.0 miEast (90°)2.2 mphClear
8:00 AM60.8 °F39.2 °F45 %29.80 in6.2 miESE (110°)4.5 mphPartly Cloudy
9:00 AM64.4 °F41.0 °F42 %29.80 in6.2 miEast (90°)4.5 mphPartly Cloudy
10:00 AM75.2 °F33.8 °F22 %29.80 in6.2 miSE (130°)11.2 mphPartly Cloudy
11:00 AM78.0 °F32.0 °F10 %29.78 in6.0 miEast (100°)15.7 mph
11:00 AM78.8 °F28.4 °F16 %29.77 in6.2 miESE (110°)17.9 mphClear
12:00 PM82.4 °F30.2 °F15 %29.77 in6.2 miEast (90°)17.9 mph29.1 mphClear
1:00 PM82.4 °F28.4 °F14 %29.74 in6.2 miEast (90°)17.9 mphClear
2:00 PM85.0 °F34.0 °F8 %29.73 in6.0 miENE (70°)13.4 mph
2:00 PM86.0 °F28.4 °F12 %29.74 in6.2 miEast (100°)13.4 mphClear
3:00 PM86.0 °F28.4 °F12 %29.71 in6.2 miEast (100°)11.2 mphClear
4:00 PM86.0 °F26.6 °F12 %29.71 in6.2 miEast (90°)13.4 mphClear
5:00 PM86.0 °F28.0 °F6 %29.67 in6.0 miEast (90°)15.7 mph
5:00 PM86.0 °F26.6 °F12 %29.68 in6.2 miEast (90°)13.4 mphClear
6:00 PM84.2 °F24.8 °F11 %29.68 in6.2 miEast (100°)15.7 mphClear
7:00 PM82.4 °F24.8 °F12 %29.68 in6.2 miESE (110°)11.2 mphClear
8:00 PM78.0 °F32.0 °F10 %29.67 in6.0 miEast (100°)15.7 mph
8:00 PM75.2 °F32.0 °F21 %29.68 in6.2 miESE (120°)13.4 mphClear
9:00 PM71.6 °F35.6 °F27 %29.68 in6.2 miEast (100°)8.9 mphClear
10:00 PM68.0 °F32.0 °F26 %29.71 in6.2 miEast (100°)8.9 mphClear
11:00 PM67.0 °F33.0 °F18 %29.69 in6.0 miESE (110°)8.9 mph
11:00 PM66.2 °F30.2 °F26 %29.68 in6.2 miSE (130°)8.9 mphClear
Hourly data recorded from UTAA, located miles away from Ashgabat, Turkmenistan







STORIES FROM OUR PARTNERS